Regional Weather Roundup
Issued by NWS

Home | Current Version | Previous Version | Text Only | Print | Product List | Glossary On
Versions: 1 2 3 4 5 6 7 8 9 10 11 12 13 14 15 16 17 18 19 20 21 22 23 24 25 26 27 28 29 30 31 32 33 34 35 36 37 38 39 40 41 42 43 44 45 46 47 48 49 50
000
ASHW40 PHFO 220943
RWRHI

WEATHER ROUNDUP FOR HAWAII
NATIONAL WEATHER SERVICE HONOLULU HI
1100 PM HST MON JUL 21 2014

THIS IS AN AUTOMATED REPORT THAT HAS NOT BEEN QUALITY CONTROLLED.

NOTE..."FAIR" INDICATES FEW OR NO CLOUDS BELOW 12,000 FEET WITH NO
SIGNIFICANT WEATHER AND/OR OBSTRUCTIONS TO VISIBILITY.

* - THESE SITES REPORT LIMITED FIELDS

HIZ001>004-221000-
KAUAI-NIIHAU-

CITY           SKY/WX    TMP DP  RH WIND       PRES   REMARKS
LIHUE APT      PTCLDY    77  75  93 N5        30.03R
PORT ALLEN*      N/A     77 N/A N/A E3          N/A
POIPU*           N/A     77 N/A N/A N2          N/A
PRINCEVILLE*   NOT AVBL
KOKOLE POINT*  NOT AVBL
MOLOAA DAIRY*  NOT AVBL
WAIMEA HTS*      N/A     73  68  83 N1          N/A
PUU OPAE*        N/A     68  61  77 CALM        N/A
PUU LUA*       NOT AVBL
MAKAHA RIDGE*  NOT AVBL
$$

HIZ005>011-221000-
OAHU-

CITY           SKY/WX    TMP DP  RH WIND       PRES   REMARKS
HONOLULU       MOCLDY    81  74  79 CALM      29.99F
KALAELOA       CLOUDY    80  75  84 CALM      30.01S
KANEOHE MCB    CLOUDY    75  73  94 E3        30.00F
WHEELER FIELD  MOCLDY    75  73  94 CALM      30.02S
BELLOWS*         N/A    N/A N/A N/A E10         N/A
KAHUKU*          N/A    N/A N/A N/A E6G12       N/A
WHEELER*       NOT AVBL
WAIANAE HARBOR NOT AVBL
DILLINGHAM*      N/A     75  72  88 S1          N/A
KAHUKU TRN*      N/A     75  75 100 E7G15       N/A
KAWAILOA*      NOT AVBL
KII*             N/A     79  77  94 E9          N/A
MAKUA RANGE*     N/A     75  70  83 E1G7        N/A
OAHU FOREST NW   N/A     72  72 100 W3G15       N/A
SCHOFIELD BRK*   N/A     73  72  94 MISG        N/A
SCHOFIELD S*   NOT AVBL
WAIANAE VLY*     N/A     73  70  88 VRB3        N/A
KUAOKALA*        N/A     75  72  88 CALM        N/A
HONOULIUULI*   NOT AVBL
MOKUOLOE IS*     N/A    N/A N/A N/A MISG        N/A
PALEHUA*         N/A     82  75  78 CALM        N/A
WAIAWA PHB*    NOT AVBL
$$

HIZ012>013-221000-
MOLOKAI-

CITY           SKY/WX    TMP DP  RH WIND       PRES   REMARKS
MOLOKAI AIRPT  CLOUDY    77  77 100 CALM      30.03R
KALAUPAPA      NOT AVBL
MAKAPULAPAI*     N/A     75  73  94 E3          N/A
MOLOKAI 1*       N/A     70  70 100 N1G7        N/A
PUU ALII*        N/A     65  64  98 SE1         N/A
$$

HIZ016-221000-
KAHOOLAWE-

CITY           SKY/WX    TMP DP  RH WIND       PRES   REMARKS
KAHOOLAWE*       N/A     73 N/A N/A E18G26      N/A
HAKIOAWA*        N/A     73  72  96 MISG      30.12S
HONOKANAIA*      N/A     78  74  86 NE10G26   30.02R
KANELOA*         N/A     75  75 100 E16G26    30.12S
KEALIALALO*      N/A    N/A N/A N/A SE9G26    30.32
LUA MAKIKA*    NOT AVBL
$$

HIZ014>015-221000-
LANAI-

CITY           SKY/WX    TMP DP  RH WIND       PRES   REMARKS
LANAI CITY     FAIR      73  73 100 NW7       30.08S
LANAI 1*         N/A     73  73 100 VRB5        N/A
$$

HIZ017>028-221000-
MAUI-

CITY           SKY/WX    TMP DP  RH WIND       PRES   REMARKS
KAHULUI        CLOUDY    79  74  84 S5        29.99S
KAPALUA-W MAUI NOT AVBL
HANA AIRPORT     N/A     75  73  94 SE3       30.04F
HANA*            N/A     77 N/A N/A SE6G15      N/A
HALEAKALA SUMM   N/A     46  46 100 E17         N/A
MAALAEA BAY*   NOT AVBL
HALEAKALA*     NOT AVBL
KAUPO GAP*       N/A     64  64 100 E3G12       N/A
KULA 1*          N/A     58  55  91 E5G13       N/A
$$

HIZ023>026-221000-
BIG ISLAND OF HAWAII COAST AND LOWER SLOPES-

CITY           SKY/WX    TMP DP  RH WIND       PRES   REMARKS
KAILUA KONA    CLOUDY    80  74  81 CALM      30.00R
HILO           CLOUDY    76  73  91 SW5       30.04F
HONOKAA*       NOT AVBL
KAWAIHAE MWT*    N/A     81 N/A N/A NW2         N/A
KAWAIHAE*        N/A     81 N/A N/A W1          N/A
SOUTH POINT*     N/A     72 N/A N/A NE18G28     N/A
UPOLU AIRPORT*   N/A    N/A N/A N/A E5          N/A
KAMUELA*       FOG       68  68 100 W8        30.13F VSB 1/2
HAKALAU*         N/A     58  58  99 SW6         N/A
KALOKO-HONOKO*   N/A     79  70  73 NE3       29.98F
PALI 2*          N/A     66  64  94 NE6         N/A
KEALAKOMO*       N/A     79  75  89 NE3         N/A
KAUPULEHU*       N/A     73  68  83 SE3         N/A
KAPAPALA*        N/A     70  68  94 CALM        N/A
LOWER KAHUKU*  NOT AVBL
PUHE CS*       NOT AVBL
PUHO CS*         N/A     77  70  79 NE2         N/A
PTA KEAMUKU*     N/A     66  64  94 S3          N/A
WAIKOLOA*        N/A     75  70  83 VRB1        N/A
$$

HIZ027>028-221000-
BIG ISLAND OF HAWAII INTERIOR AND SUMMMITS-

CITY           SKY/WX    TMP DP  RH WIND       PRES   REMARKS
BRADSHAW FIELD CLOUDY    61  57  86 SE13G20   30.39S
MK VISITOR CEN NOT AVBL
MAUNA KEA*       N/A     39  12  33 SE10        N/A
MAUNA LOA*       N/A    N/A N/A N/A MISG        N/A
MAUNA LOA 1*   NOT AVBL
PTA KIPUKA*      N/A     59  59 100 E1          N/A
PTA RANGE 17*    N/A     64  59  82 E13G18      N/A
PTA WEST*        N/A     64  61  88 W3          N/A
NENE CABIN*    NOT AVBL
AHUMOA*          N/A     56  53  90 SE2         N/A
PTA PORTABLE*  NOT AVBL
PUU MALI*      NOT AVBL
$$

HIC003-221000-
NORTHWEST ISLANDS-

CITY           SKY/WX    TMP DP  RH WIND       PRES   REMARKS
MIDWAY ISLAND  CLEAR     79  72  78 NE5       30.10R
MIDWAY NOS*    NOT AVBL
FRENCH FRIGATE NOT AVBL
$$

PHZ110>124-180-221000-
BUOY REPORTS

STATION/POSITION TIME  TEMP    WIND        PRES    WAVE   SWELL
                       AIR SEA DIR/SP/G            HT/PER HT/DIR
                 (UTC) (F)     (DEG/KT/KT) (MB)    (FT/S) (FT/D)
BUOY 51001       NOT AVBL
BUOY 51101       0900   77 80   70/ 16/ 23 1017.0R   6/ 8   5/100
BUOY 51100       0900   77      90/ 16     1018.9R
BUOY 51003       0900   81 81  100/ 12/ 14 1015.4S   5/ 8   5
BUOY 51004       0842   79 80   90/ 16/ 17 1015.3F   7/ 8   5/100
BARBERS PT BUOY  NOT AVBL
WAIMEA BAY BUOY  0900      81                N/A     3/ 8
KAILUA BAY BUOY  0900      80                N/A     4/ 8
LANAI BUOY       0900      79                N/A     3/13   2/190
BARBERS PT 2     0900      81                N/A     3/13   2/200
PAUWELA MAUI     0900      79                N/A     6/ 8
HILO             NOT AVBL
KANEOHE BAY BUOY 0900      79                N/A     5/ 8
HANALEI KAUAI    0900      80                N/A     6/ 8
KAHULUI HARBOR   0900   79 79  260/  2/  3 1015.3R
HONOLULU HARBOR  0900   81      CALM  /  2 1016.0F
KILO NALU        NOT AVBL
HILO HARBOR      0900   76     210/  5/  8 1016.6F
MOKUOLOE         0900   80 83  100/  5/  8 1016.0F
NAWILIWILI       0900      80                N/A
WHOTS BUOY       NOT AVBL
BUOY 51028       NOT AVBL
$$

......................KEY........................................
  SKY/WX - SKY CONDITIONS/PRESENT WEATHER
  TMP    - TEMPERATURE IN FAHRENHEIT
  DWPT   - DEWPOINT IN FAHRENHEIT
  RH     - RELATIVE HUMIDITY IN PERCENT
  WIND   - DIRECTION AND SPEED /MPH FOR ISLANDS...KTS FOR BUOYS/
  PRES   - MEAN SEA LEVEL PRESSURE IN INCHES OF HG
  VSB    - VISIBILITY IN MILES
  HX     - HEAT INDEX
  WCI    - WIND CHILL INDEX
  VRB    - VARIABLE WIND DIRECTION
  N/A    - NOT AVAILABLE



USA.gov is the U.S. government's official web portal to all federal, state and local government web resources and services.